| time (UTC) | temp F | wind direction | speed MPH | gust MPH | rain 1hr in | rain 24hr in | rain mn in | humidity % | barometer mb |
| 20260831210845 | 78 | 54 | 5.0 | 6.0 | 0.00 | 0.01 | 0.00 | 37 | 1023.3 |
| 20260831205843 | 77 | 149 | 2.0 | 2.0 | 0.00 | 0.01 | 0.00 | 37 | 1023.4 |
| 20260831204824 | 77 | 181 | 1.0 | 2.0 | 0.00 | 0.01 | 0.00 | 39 | 1023.5 |
| 20260831203845 | 77 | 25 | 3.0 | 4.0 | 0.00 | 0.01 | 0.00 | 39 | 1023.6 |
| 20260831202823 | 77 | 125 | 5.0 | 6.0 | 0.00 | 0.04 | 0.00 | 38 | 1023.7 |
| 20260831201845 | 76 | 107 | 2.0 | 3.0 | 0.00 | 0.08 | 0.00 | 39 | 1023.8 |
| 20260831200826 | 76 | 58 | 2.0 | 4.0 | 0.00 | 0.08 | 0.00 | 38 | 1023.9 |
| 20260831195843 | 76 | 189 | 2.0 | 3.0 | 0.00 | 0.09 | 0.00 | 38 | 1024.0 |
| 20260831194824 | 76 | 152 | 2.0 | 4.0 | 0.00 | 0.09 | 0.00 | 39 | 1024.0 |
| 20260831193827 | 77 | 148 | 2.0 | 4.0 | 0.00 | 0.09 | 0.00 | 38 | 1024.1 |
| 20260831192823 | 76 | 189 | 3.0 | 5.0 | 0.00 | 0.09 | 0.00 | 38 | 1024.2 |
| 20260831191825 | 76 | 148 | 3.0 | 4.0 | 0.00 | 0.09 | 0.00 | 39 | 1024.3 |
| 20260831190830 | 76 | 25 | 3.0 | 8.0 | 0.00 | 0.09 | 0.00 | 39 | 1024.4 |
| 20260831185826 | 75 | 172 | 3.0 | 5.0 | 0.00 | 0.09 | 0.00 | 40 | 1024.7 |
| 20260831184821 | 75 | 176 | 3.0 | 4.0 | 0.00 | 0.09 | 0.00 | 39 | 1024.7 |
| 20260831183817 | 74 | 184 | 2.0 | 3.0 | 0.00 | 0.09 | 0.00 | 40 | 1024.7 |
| 20260831182826 | 75 | 147 | 3.0 | 4.0 | 0.00 | 0.09 | 0.00 | 41 | 1024.7 |
| 20260831181818 | 75 | 84 | 4.0 | 8.0 | 0.00 | 0.09 | 0.00 | 39 | 1024.7 |
| 20260831180826 | 75 | 152 | 1.0 | 2.0 | 0.00 | 0.09 | 0.00 | 38 | 1024.7 |
| 20260831175827 | 74 | 10 | 5.0 | 7.0 | 0.00 | 0.09 | 0.00 | 39 | 1024.9 |
| 20260831174818 | 74 | 4 | 6.0 | 7.0 | 0.00 | 0.09 | 0.00 | 39 | 1024.9 |
| 20260831173829 | 73 | 113 | 3.0 | 4.0 | 0.00 | 0.09 | 0.00 | 40 | 1025.0 |
| 20260831172818 | 73 | 104 | 3.0 | 5.0 | 0.00 | 0.09 | 0.00 | 42 | 1025.0 |
| 20260831171818 | 73 | 114 | 1.0 | 2.0 | 0.00 | 0.09 | 0.00 | 42 | 1024.9 |
| 20260831170818 | 73 | 186 | 2.0 | 3.0 | 0.00 | 0.09 | 0.00 | 41 | 1025.0 |
| 20260831165821 | 73 | 111 | 2.0 | 3.0 | 0.00 | 0.09 | 0.00 | 41 | 1025.0 |
| 20260831164840 | 73 | 124 | 3.0 | 4.0 | 0.00 | 0.09 | 0.00 | 41 | 1025.0 |
| 20260831163838 | 73 | 29 | 3.0 | 8.0 | 0.00 | 0.09 | 0.00 | 42 | 1024.9 |
| 20260831162819 | 73 | 53 | 3.0 | 5.0 | 0.00 | 0.09 | 0.00 | 44 | 1024.8 |
| 20260831161848 | 73 | 182 | 2.0 | 4.0 | 0.00 | 0.09 | 0.00 | 44 | 1024.7 |
| 20260831160828 | 73 | 193 | 2.0 | 3.0 | 0.00 | 0.09 | 0.00 | 42 | 1024.6 |
| 20260831155832 | 73 | 181 | 4.0 | 4.0 | 0.00 | 0.09 | 0.00 | 42 | 1024.6 |
| 20260831154820 | 73 | 13 | 4.0 | 5.0 | 0.00 | 0.09 | 0.00 | 41 | 1024.6 |
| 20260831153828 | 73 | 32 | 3.0 | 3.0 | 0.00 | 0.09 | 0.00 | 40 | 1024.6 |
| 20260831152833 | 73 | 45 | 1.0 | 2.0 | 0.00 | 0.09 | 0.00 | 41 | 1024.5 |
| 20260831151829 | 74 | 5 | 3.0 | 3.0 | 0.00 | 0.09 | 0.00 | 39 | 1024.5 |
| 20260831150829 | 73 | 300 | 1.0 | 2.0 | 0.00 | 0.09 | 0.00 | 41 | 1024.5 |
| 20260831145833 | 73 | 199 | 3.0 | 3.0 | 0.00 | 0.09 | 0.00 | 42 | 1024.6 |
| 20260831144850 | 72 | 12 | 2.0 | 3.0 | 0.00 | 0.09 | 0.00 | 42 | 1024.7 |
| 20260831143829 | 71 | 28 | 2.0 | 3.0 | 0.00 | 0.09 | 0.00 | 42 | 1024.7 |
| 20260831142833 | 70 | 223 | 1.0 | 2.0 | 0.00 | 0.09 | 0.00 | 46 | 1024.7 |
| 20260831141830 | 68 | 262 | 1.0 | 2.0 | 0.00 | 0.09 | 0.00 | 46 | 1024.6 |
| 20260831140830 | 67 | 240 | 2.0 | 3.0 | 0.00 | 0.09 | 0.00 | 50 | 1024.5 |
| 20260831135833 | 65 | 293 | 1.0 | 1.0 | 0.00 | 0.09 | 0.00 | 53 | 1024.4 |
| 20260831134830 | 64 | 0.0 | 0.0 | 0.00 | 0.09 | 0.00 | 55 | 1024.4 | |
| 20260831133830 | 64 | 0.0 | 0.0 | 0.00 | 0.09 | 0.00 | 56 | 1024.2 | |
| 20260831132834 | 64 | 206 | 1.0 | 1.0 | 0.00 | 0.09 | 0.00 | 55 | 1024.1 |
| 20260831131831 | 64 | 214 | 0.0 | 0.0 | 0.00 | 0.09 | 0.00 | 53 | 1024.0 |
| 20260831130830 | 64 | 206 | 0.0 | 0.0 | 0.00 | 0.09 | 0.00 | 52 | 1023.8 |
| 20260831125822 | 63 | 0.0 | 0.0 | 0.00 | 0.09 | 0.00 | 54 | 1023.7 | |
| 20260831124818 | 63 | 220 | 1.0 | 1.0 | 0.00 | 0.09 | 0.00 | 53 | 1023.6 |
| 20260831123816 | 63 | 238 | 1.0 | 1.0 | 0.00 | 0.09 | 0.00 | 53 | 1023.5 |
| 20260831122836 | 63 | 255 | 1.0 | 1.0 | 0.00 | 0.09 | 0.00 | 55 | 1023.4 |
| 20260831121853 | 63 | 272 | 1.0 | 1.0 | 0.00 | 0.09 | 0.00 | 55 | 1023.5 |
| 20260831120832 | 63 | 259 | 1.0 | 2.0 | 0.00 | 0.09 | 0.00 | 55 | 1023.4 |
| 20260831115836 | 63 | 257 | 1.0 | 2.0 | 0.00 | 0.09 | 0.00 | 54 | 1023.3 |
| 20260831114817 | 63 | 222 | 1.0 | 1.0 | 0.00 | 0.09 | 0.00 | 53 | 1023.2 |
| 20260831113842 | 63 | 239 | 1.0 | 1.0 | 0.00 | 0.09 | 0.00 | 54 | 1023.3 |
| 20260831112818 | 63 | 246 | 1.0 | 2.0 | 0.00 | 0.09 | 0.00 | 55 | 1023.3 |
| 20260831111858 | 62 | 259 | 1.0 | 1.0 | 0.00 | 0.09 | 0.00 | 56 | 1023.2 |
| 20260831110821 | 62 | 247 | 1.0 | 1.0 | 0.00 | 0.09 | 0.00 | 57 | 1023.2 |
| 20260831105817 | 62 | 255 | 1.0 | 1.0 | 0.00 | 0.09 | 0.00 | 57 | 1023.2 |
| 20260831104816 | 62 | 260 | 1.0 | 1.0 | 0.00 | 0.09 | 0.00 | 56 | 1023.2 |
| 20260831103820 | 62 | 275 | 1.0 | 2.0 | 0.00 | 0.09 | 0.00 | 58 | 1023.2 |
| 20260831102817 | 62 | 258 | 1.0 | 2.0 | 0.00 | 0.09 | 0.00 | 57 | 1023.1 |
| 20260831101817 | 62 | 245 | 1.0 | 1.0 | 0.00 | 0.09 | 0.00 | 57 | 1023.1 |
| 20260831100823 | 62 | 246 | 1.0 | 1.0 | 0.00 | 0.09 | 0.00 | 58 | 1023.1 |
| 20260831095818 | 62 | 256 | 1.0 | 1.0 | 0.00 | 0.09 | 0.00 | 57 | 1023.0 |
| 20260831094818 | 63 | 230 | 1.0 | 1.0 | 0.00 | 0.09 | 0.00 | 56 | 1022.9 |
| 20260831093821 | 63 | 261 | 1.0 | 1.0 | 0.00 | 0.09 | 0.00 | 54 | 1022.8 |
| 20260831092824 | 64 | 277 | 1.0 | 2.0 | 0.00 | 0.09 | 0.00 | 53 | 1022.7 |
| 20260831091818 | 64 | 201 | 2.0 | 3.0 | 0.00 | 0.09 | 0.00 | 52 | 1022.8 |
| 20260831090841 | 63 | 258 | 1.0 | 1.0 | 0.00 | 0.09 | 0.00 | 57 | 1022.7 |
| 20260831085820 | 62 | 263 | 1.0 | 2.0 | 0.00 | 0.09 | 0.00 | 61 | 1022.7 |
| 20260831084818 | 62 | 231 | 1.0 | 1.0 | 0.00 | 0.09 | 0.00 | 64 | 1022.8 |
| 20260831083822 | 62 | 238 | 1.0 | 1.0 | 0.00 | 0.09 | 0.00 | 67 | 1022.8 |
| 20260831082839 | 62 | 236 | 1.0 | 1.0 | 0.00 | 0.09 | 0.00 | 67 | 1023.0 |
| 20260831081819 | 62 | 270 | 2.0 | 2.0 | 0.00 | 0.09 | 0.00 | 69 | 1023.0 |
| 20260831080905 | 63 | 326 | 1.0 | 1.0 | 0.00 | 0.09 | 0.00 | 68 | 1023.0 |
| 20260831075820 | 63 | 208 | 1.0 | 2.0 | 0.00 | 0.09 | 0.00 | 67 | 1022.9 |
| 20260831074820 | 63 | 0.0 | 0.0 | 0.00 | 0.09 | 0.00 | 69 | 1023.1 | |
| 20260831073823 | 63 | 44 | 2.0 | 2.0 | 0.00 | 0.09 | 0.00 | 68 | 1023.2 |
| 20260831072841 | 64 | 190 | 1.0 | 1.0 | 0.00 | 0.09 | 0.00 | 64 | 1023.3 |
| 20260831071820 | 65 | 33 | 2.0 | 3.0 | 0.00 | 0.09 | 0.00 | 59 | 1023.3 |
| 20260831070823 | 66 | 303 | 2.0 | 2.0 | 0.00 | 0.09 | 0.00 | 54 | 1023.3 |
| 20260831065821 | 67 | 300 | 0.0 | 1.0 | 0.00 | 0.09 | 0.00 | 51 | 1023.4 |
| 20260831064821 | 68 | 200 | 2.0 | 3.0 | 0.00 | 0.09 | 0.00 | 48 | 1023.4 |
| 20260831063821 | 70 | 330 | 3.0 | 3.0 | 0.00 | 0.09 | 0.00 | 45 | 1023.3 |
| 20260831062817 | 69 | 220 | 4.0 | 6.0 | 0.00 | 0.09 | 0.00 | 45 | 1022.9 |
| 20260831061817 | 69 | 294 | 3.0 | 5.0 | 0.00 | 0.09 | 0.00 | 44 | 1023.0 |
| 20260831060817 | 70 | 218 | 5.0 | 7.0 | 0.00 | 0.09 | 0.00 | 44 | 1023.2 |
| 20260831055825 | 0 | 256 | 5.0 | 6.0 | 0.00 | 0.09 | 0.09 | ||
| 20260831054818 | 67 | 236 | 5.0 | 7.0 | 0.00 | 0.09 | 0.09 | 48 | 1023.4 |
| 20260831053858 | 0 | 229 | 2.0 | 5.0 | 0.00 | 0.09 | 0.09 | ||
| 20260831052842 | 68 | 277 | 3.0 | 6.0 | 0.00 | 0.09 | 0.09 | 52 | 1023.7 |
| 20260831051823 | 68 | 307 | 2.0 | 4.0 | 0.00 | 0.09 | 0.09 | 51 | 1023.6 |
| 20260831050839 | 0 | 236 | 2.0 | 3.0 | 0.00 | 0.09 | 0.09 | ||
| 20260831045823 | 69 | 284 | 4.0 | 7.0 | 0.00 | 0.09 | 0.09 | 50 | 1024.2 |
| 20260831044819 | 69 | 278 | 3.0 | 5.0 | 0.00 | 0.09 | 0.09 | 47 | 1024.3 |
| 20260831043818 | 67 | 282 | 3.0 | 6.0 | 0.00 | 0.09 | 0.09 | 50 | 1024.3 |
| 20260831042842 | 66 | 323 | 4.0 | 5.0 | 0.00 | 0.09 | 0.09 | 58 | 1024.2 |
| 20260831041829 | 66 | 288 | 1.0 | 1.0 | 0.00 | 0.09 | 0.09 | 70 | 1023.9 |
| 20260831040823 | 66 | 285 | 1.0 | 1.0 | 0.00 | 0.09 | 0.09 | 68 | 1023.7 |
| 20260831035827 | 66 | 270 | 1.0 | 1.0 | 0.00 | 0.09 | 0.09 | 67 | 1023.6 |
| 20260831034925 | 66 | 255 | 1.0 | 2.0 | 0.00 | 0.09 | 0.09 | 67 | 1023.6 |
| 20260831033824 | 65 | 0.0 | 0.0 | 0.00 | 0.09 | 0.09 | 64 | 1023.5 | |
| 20260831032827 | 64 | 251 | 0.0 | 0.0 | 0.00 | 0.09 | 0.09 | 66 | 1023.5 |
| 20260831031824 | 63 | 0.0 | 0.0 | 0.00 | 0.09 | 0.09 | 71 | 1023.4 | |
| 20260831030824 | 63 | 251 | 1.0 | 1.0 | 0.00 | 0.09 | 0.09 | 74 | 1023.5 |
| 20260831025828 | 63 | 231 | 1.0 | 1.0 | 0.00 | 0.09 | 0.09 | 74 | 1023.4 |
| 20260831024825 | 63 | 218 | 1.0 | 1.0 | 0.00 | 0.09 | 0.09 | 74 | 1023.4 |
| 20260831023825 | 64 | 227 | 1.0 | 1.0 | 0.00 | 0.09 | 0.09 | 74 | 1023.4 |
| 20260831022829 | 64 | 223 | 1.0 | 1.0 | 0.00 | 0.09 | 0.09 | 74 | 1023.2 |
| 20260831021826 | 65 | 216 | 0.0 | 1.0 | 0.00 | 0.09 | 0.09 | 73 | 1023.1 |
| 20260831020846 | 64 | 117 | 1.0 | 1.0 | 0.00 | 0.09 | 0.09 | 71 | 1023.0 |
| 20260831015829 | 65 | 0.0 | 0.0 | 0.00 | 0.09 | 0.09 | 69 | 1022.9 | |
| 20260831014827 | 66 | 0.0 | 0.0 | 0.00 | 0.09 | 0.09 | 67 | 1022.9 | |
| 20260831013826 | 66 | 322 | 1.0 | 1.0 | 0.00 | 0.09 | 0.09 | 67 | 1022.9 |
| 20260831012830 | 67 | 201 | 1.0 | 2.0 | 0.00 | 0.09 | 0.09 | 66 | 1022.8 |
| 20260831011846 | 68 | 302 | 1.0 | 2.0 | 0.00 | 0.09 | 0.09 | 64 | 1022.8 |
| 20260831010826 | 68 | 189 | 2.0 | 2.0 | 0.00 | 0.09 | 0.09 | 62 | 1022.7 |
| 20260831005830 | 69 | 173 | 3.0 | 3.0 | 0.00 | 0.09 | 0.09 | 60 | 1022.8 |
| 20260831004828 | 69 | 186 | 2.0 | 3.0 | 0.00 | 0.09 | 0.09 | 59 | 1022.7 |
| 20260831003827 | 70 | 210 | 2.0 | 2.0 | 0.00 | 0.09 | 0.09 | 58 | 1022.8 |
| 20260831002837 | 70 | 278 | 2.0 | 5.0 | 0.00 | 0.09 | 0.09 | 57 | 1022.6 |
| 20260831001827 | 71 | 17 | 3.0 | 4.0 | 0.00 | 0.09 | 0.09 | 56 | 1022.7 |
| 20260831000817 | 71 | 136 | 3.0 | 3.0 | 0.00 | 0.09 | 0.09 | 54 | 1022.8 |
| 20260830235821 | 71 | 40 | 4.0 | 7.0 | 0.00 | 0.09 | 0.09 | 52 | 1022.9 |
| 20260830234829 | 71 | 26 | 5.0 | 8.0 | 0.00 | 0.09 | 0.09 | 53 | 1022.8 |
| 20260830233832 | 72 | 16 | 3.0 | 4.0 | 0.00 | 0.09 | 0.09 | 51 | 1022.6 |
| 20260830232828 | 74 | 113 | 5.0 | 7.0 | 0.00 | 0.09 | 0.09 | 47 | 1022.3 |
| 20260830231821 | 74 | 80 | 2.0 | 4.0 | 0.00 | 0.09 | 0.09 | 46 | 1022.0 |
| 20260830230818 | 74 | 147 | 3.0 | 4.0 | 0.00 | 0.09 | 0.09 | 45 | 1022.0 |
| 20260830225818 | 73 | 151 | 4.0 | 5.0 | 0.00 | 0.09 | 0.09 | 45 | 1022.0 |
| 20260830224822 | 72 | 111 | 3.0 | 4.0 | 0.00 | 0.09 | 0.09 | 48 | 1022.0 |
| 20260830223819 | 73 | 153 | 5.0 | 6.0 | 0.00 | 0.09 | 0.09 | 44 | 1022.0 |
| 20260830222819 | 73 | 189 | 2.0 | 3.0 | 0.00 | 0.09 | 0.09 | 42 | 1022.0 |
| 20260830221830 | 72 | 211 | 6.0 | 8.0 | 0.00 | 0.09 | 0.09 | 44 | 1022.3 |
| 20260830220816 | 71 | 258 | 6.0 | 8.0 | 0.01 | 0.09 | 0.09 | 44 | 1022.4 |
| 20260830215822 | 69 | 198 | 4.0 | 6.0 | 0.01 | 0.09 | 0.09 | 50 | 1022.5 |
| 20260830214851 | 69 | 205 | 4.0 | 8.0 | 0.01 | 0.09 | 0.09 | 49 | 1022.7 |
| 20260830213819 | 67 | 232 | 4.0 | 8.0 | 0.01 | 0.09 | 0.09 | 52 | 1022.8 |
| 20260830212823 | 65 | 279 | 4.0 | 7.0 | 0.04 | 0.10 | 0.09 | 57 | 1022.9 |
| 20260830211820 | 65 | 244 | 5.0 | 10.0 | 0.08 | 0.12 | 0.09 | 61 | 1022.8 |